Tracking 28790 objects as of 18-Apr-2024
HD Live streaming from Space Station
objects crossing your sky now

FENGYUN 1C DEB

Track FENGYUN 1C DEB now!
10-day predictions


NORAD ID: 30092
Int'l Code: 1999-025QV
Perigee: 719.0 km
Apogee: 845.5 km
Inclination: 98.9 °
Period: 100.3 minutes
Semi major axis: 7153 km
RCS: 0.046 m2 (small)
Launch date: May 10, 1999
Source: People's Republic of China (PRC)
Launch site: Taiyaun Space Center, China (TSC)

Note: This is SATELLITE DEBRIS
Your satellite tracking list
Your tracking list is empty




NASA's NSSDC Master Catalog

Two Line Element Set (TLE):
1 30092U 99025QV  24108.90790352  .00005895  00000-0  19957-2 0  9999
2 30092  98.8731 260.8427 0088381 229.5926 257.7819 14.34983935900742
Source of the keplerian elements: AFSPC